| time (UTC) | temp C | wind direction | speed KPH | gust KPH | rain 1hr cm | rain 24hr cm | rain mn cm | humidity % | barometer mb |
| 20260504024534 | 22 | 203 | 3.2 | 14.5 | 0.00 | 0.00 | 0.00 | 45 | 993.8 |
| 20260504023036 | 22 | 235 | 3.2 | 12.9 | 0.00 | 0.00 | 0.00 | 43 | 993.8 |
| 20260504021532 | 23 | 212 | 1.6 | 9.7 | 0.00 | 0.00 | 0.00 | 40 | 993.8 |
| 20260504020031 | 23 | 94 | 4.8 | 16.1 | 0.00 | 0.00 | 0.00 | 38 | 993.6 |
| 20260504014534 | 23 | 219 | 4.8 | 17.7 | 0.00 | 0.00 | 0.00 | 38 | 993.5 |
| 20260504013035 | 23 | 182 | 3.2 | 17.7 | 0.00 | 0.00 | 0.00 | 37 | 993.4 |
| 20260504011529 | 24 | 186 | 4.8 | 12.9 | 0.00 | 0.00 | 0.00 | 37 | 993.4 |
| 20260504010027 | 24 | 203 | 9.7 | 24.1 | 0.00 | 0.00 | 0.00 | 35 | 993.4 |
| 20260504004526 | 25 | 194 | 3.2 | 17.7 | 0.00 | 0.00 | 0.00 | 36 | 993.3 |
| 20260504003023 | 25 | 221 | 3.2 | 17.7 | 0.00 | 0.00 | 0.00 | 36 | 993.4 |
| 20260504001523 | 25 | 177 | 4.8 | 11.3 | 0.00 | 0.00 | 0.00 | 35 | 993.3 |
| 20260504000020 | 26 | 175 | 3.2 | 17.7 | 0.00 | 0.00 | 0.00 | 34 | 993.5 |
| 20260503234521 | 26 | 219 | 4.8 | 19.3 | 0.00 | 0.00 | 0.00 | 34 | 993.6 |
| 20260503233019 | 26 | 205 | 1.6 | 16.1 | 0.00 | 0.00 | 0.00 | 33 | 993.6 |
| 20260503231515 | 27 | 190 | 4.8 | 11.3 | 0.00 | 0.00 | 0.00 | 32 | 993.9 |
| 20260503230012 | 27 | 112 | 6.4 | 14.5 | 0.00 | 0.00 | 0.00 | 31 | 993.8 |
| 20260503224511 | 27 | 197 | 6.4 | 22.5 | 0.00 | 0.00 | 0.00 | 33 | 994.0 |
| 20260503223010 | 27 | 180 | 8.0 | 22.5 | 0.00 | 0.00 | 0.00 | 31 | 993.9 |
| 20260503221507 | 27 | 203 | 4.8 | 14.5 | 0.00 | 0.00 | 0.00 | 33 | 994.2 |
| 20260503220005 | 28 | 207 | 4.8 | 16.1 | 0.00 | 0.00 | 0.00 | 30 | 994.4 |
| 20260503214507 | 27 | 149 | 8.0 | 17.7 | 0.00 | 0.00 | 0.00 | 28 | 994.5 |
| 20260503213002 | 28 | 110 | 3.2 | 16.1 | 0.00 | 0.00 | 0.00 | 30 | 994.6 |
| 20260503211600 | 28 | 198 | 6.4 | 14.5 | 0.00 | 0.00 | 0.00 | 30 | 994.9 |
| 20260503210100 | 28 | 217 | 4.8 | 14.5 | 0.00 | 0.00 | 0.00 | 30 | 995.1 |
| 20260503204557 | 27 | 221 | 6.4 | 17.7 | 0.00 | 0.00 | 0.00 | 31 | 995.5 |
| 20260503203057 | 28 | 205 | 4.8 | 14.5 | 0.00 | 0.00 | 0.00 | 31 | 995.8 |
| 20260503201552 | 28 | 191 | 3.2 | 16.1 | 0.00 | 0.00 | 0.00 | 32 | 996.0 |
| 20260503200055 | 27 | 326 | 4.8 | 14.5 | 0.00 | 0.00 | 0.00 | 32 | 996.2 |
| 20260503194555 | 27 | 149 | 3.2 | 14.5 | 0.00 | 0.00 | 0.00 | 33 | 996.5 |
| 20260503193044 | 27 | 167 | 8.0 | 19.3 | 0.00 | 0.00 | 0.00 | 31 | 996.8 |
| 20260503191541 | 27 | 285 | 3.2 | 12.9 | 0.00 | 0.00 | 0.00 | 34 | 997.0 |
| 20260503190038 | 27 | 160 | 3.2 | 11.3 | 0.00 | 0.00 | 0.00 | 35 | 997.4 |
| 20260503184535 | 27 | 259 | 3.2 | 17.7 | 0.00 | 0.00 | 0.00 | 35 | 997.5 |
| 20260503183034 | 27 | 257 | 4.8 | 12.9 | 0.00 | 0.00 | 0.00 | 35 | 997.7 |
| 20260503181529 | 26 | 84 | 4.8 | 12.9 | 0.00 | 0.00 | 0.00 | 38 | 998.0 |
| 20260503180027 | 26 | 192 | 6.4 | 12.9 | 0.00 | 0.00 | 0.00 | 36 | 998.3 |
| 20260503174523 | 26 | 243 | 6.4 | 17.7 | 0.00 | 0.00 | 0.00 | 39 | 998.6 |
| 20260503173027 | 26 | 262 | 1.6 | 17.7 | 0.00 | 0.00 | 0.00 | 43 | 998.8 |
| 20260503171517 | 25 | 210 | 4.8 | 16.1 | 0.00 | 0.00 | 0.00 | 45 | 999.1 |
| 20260503081556 | 16 | 230 | 0.0 | 4.8 | 0.00 | 0.00 | 0.00 | 67 | 998.2 |
| 20260503071610 | 17 | 245 | 0.0 | 4.8 | 0.00 | 0.00 | 0.00 | 62 | 998.6 |
| 20260503060103 | 16 | 179 | 0.0 | 0.0 | 0.00 | 0.00 | 0.00 | 68 | 998.6 |
| 20260503054555 | 16 | 179 | 0.0 | 0.0 | 0.00 | 0.00 | 0.00 | 66 | 998.4 |
| 20260503053040 | 16 | 179 | 0.0 | 0.0 | 0.00 | 0.00 | 0.00 | 66 | 998.4 |
| 20260503051537 | 17 | 179 | 0.0 | 0.0 | 0.00 | 0.00 | 0.00 | 66 | 998.3 |
| 20260503050038 | 16 | 229 | 0.0 | 3.2 | 0.00 | 0.00 | 0.00 | 72 | 998.2 |
| 20260503044533 | 16 | 216 | 0.0 | 0.0 | 0.00 | 0.00 | 0.00 | 73 | 998.2 |
| 20260503043034 | 16 | 216 | 0.0 | 0.0 | 0.00 | 0.00 | 0.00 | 73 | 998.1 |
| 20260503041538 | 16 | 216 | 0.0 | 0.0 | 0.00 | 0.00 | 0.00 | 72 | 998.2 |
| 20260503040031 | 16 | 216 | 0.0 | 0.0 | 0.00 | 0.00 | 0.00 | 72 | 998.2 |
| 20260503034532 | 16 | 216 | 0.0 | 0.0 | 0.00 | 0.00 | 0.00 | 72 | 998.2 |
| 20260503033035 | 16 | 216 | 0.0 | 0.0 | 0.00 | 0.00 | 0.00 | 71 | 998.1 |
| 20260503031530 | 17 | 216 | 0.0 | 0.0 | 0.00 | 0.00 | 0.00 | 69 | 998.1 |
| 20260503030038 | 17 | 216 | 0.0 | 0.0 | 0.00 | 0.00 | 0.00 | 67 | 997.9 |